Weather History for Oakland, CA

Change the Weather History Date:

Saturday, November 17, 2012

  Actual Average Record
Temperature  
Mean Temperature 61 °F 54 °F  
Max Temperature 65 °F 63 °F 76 °F (2005)
Min Temperature 56 °F 45 °F 33 °F (1961)
Degree Days  
Heating Degree Days 4 11  
Month to date heating degree days 119 156  
Since 1 July heating degree days 528 508  
Cooling Degree Days 0 0  
Month to date cooling degree days 2 0  
Year to date cooling degree days 61 137  
Growing Degree Days 10 (Base 50)    
Moisture  
Dew Point 55 °F    
Average Humidity 83    
Maximum Humidity 93    
Minimum Humidity 72    
Precipitation  
Precipitation 0.62 in 0.09 in 0.97 in (1983)
Month to date precipitation 1.18 1.32  
Year to date precipitation 13.95 16.02  
Since 1 July precipitation 2.01 2.80  
Sea Level Pressure  
Sea Level Pressure 29.93 in    
Wind  
Wind Speed 12 mph (SSW)    
Max Wind Speed 21 mph    
Max Gust Speed 26 mph    
Visibility 7 miles    
Events Rain    
T = Trace of Precipitation, MM = Missing Value Source: NWS Daily Summary

Daily Weather History Graph

Daily Weather History Graph

Search for Another Location

Airport:

Trip Planner

Search our weather history database for the weather conditions in past years. The results will help you decide how hot, cold, wet, or windy it might be!

Date:

Astronomy

Nov. 17, 2012 Rise Set
Actual Time 6:51 AM PST 4:55 PM PST
Civil Twilight 6:23 AM PST 5:24 PM PST
Nautical Twilight 5:51 AM PST 5:55 PM PST
Astronomical Twilight 5:20 AM PST 6:27 PM PST
Moon 10:40 AM PST (11/17) 9:11 PM PST (11/17)
Length of Visible Light 11h 00m
Length of Day
10h 04m
Waxing Crescent, 21% of the Moon is Illuminated
Nov 17
Waxing Crescent
Nov 20
First Quarter
Nov 28
Full
Dec 6
Last Quarter
Dec 13
New

Hourly Weather History & Observations

Time (PST) Temp. Dew Point Humidity Pressure Visibility Wind Dir Wind Speed Gust Speed Precip Events Conditions
12:53 AM 59.0 °F 55.9 °F 90% 29.86 in 10.0 mi SE 9.2 mph - 0.03 in Rain Light Rain
1:53 AM 59.0 °F 55.9 °F 90% 29.86 in 10.0 mi SSE 11.5 mph - 0.04 in Rain Light Rain
2:42 AM 59.0 °F 55.4 °F 88% 29.85 in 8.0 mi SE 12.7 mph - 0.01 in Rain Light Rain
2:53 AM 59.0 °F 55.9 °F 90% 29.84 in 10.0 mi SE 12.7 mph - 0.01 in   Overcast
3:24 AM 59.0 °F 55.4 °F 88% 29.83 in 10.0 mi SE 16.1 mph - N/A   Overcast
3:53 AM 59.0 °F 55.9 °F 90% 29.82 in 10.0 mi SE 13.8 mph - N/A   Overcast
4:53 AM 59.0 °F 55.9 °F 90% 29.82 in 9.0 mi SE 16.1 mph - 0.00 in Rain Light Rain
5:20 AM 57.2 °F 55.4 °F 94% 29.82 in 9.0 mi SE 18.4 mph - 0.00 in Rain Light Rain
5:53 AM 57.9 °F 55.9 °F 93% 29.84 in 8.0 mi SSE 13.8 mph - 0.01 in Rain Light Rain
6:53 AM 57.9 °F 55.9 °F 93% 29.85 in 7.0 mi SSE 13.8 mph - 0.02 in Rain Light Rain
7:53 AM 59.0 °F 57.0 °F 93% 29.87 in 2.0 mi SSE 17.3 mph - 0.01 in Rain Rain
8:53 AM 60.1 °F 57.0 °F 90% 29.90 in 1.5 mi SSE 13.8 mph - 0.03 in Rain Rain
9:46 AM 60.8 °F 57.2 °F 88% 29.92 in 2.0 mi West 12.7 mph - 0.07 in Rain Light Rain
9:53 AM 60.1 °F 57.0 °F 90% 29.93 in 2.5 mi West 10.4 mph - 0.07 in   Overcast
10:18 AM 60.8 °F 57.2 °F 88% 29.93 in 3.0 mi West 10.4 mph - 0.00 in   Overcast
10:53 AM 60.1 °F 57.9 °F 93% 29.94 in 8.0 mi WSW 3.5 mph - 0.00 in   Overcast
11:53 AM 61.0 °F 57.0 °F 87% 29.94 in 6.0 mi WSW 9.2 mph - 0.00 in Rain Light Rain
12:00 PM 60.8 °F 57.2 °F 88% 29.94 in 7.0 mi WSW 10.4 mph - 0.00 in   Overcast
12:53 PM 62.1 °F 57.0 °F 84% 29.94 in 10.0 mi WSW 6.9 mph - 0.00 in   Mostly Cloudy
1:53 PM 63.0 °F 57.0 °F 81% 29.94 in 10.0 mi West 9.2 mph - N/A   Mostly Cloudy
2:32 PM 62.6 °F 53.6 °F 72% 29.95 in 10.0 mi West 9.2 mph - N/A   Scattered Clouds
2:53 PM 63.0 °F 54.0 °F 72% 29.95 in 10.0 mi West 9.2 mph - N/A   Scattered Clouds
3:37 PM 64.4 °F 53.6 °F 68% 29.95 in 10.0 mi SW 8.1 mph - N/A   Mostly Cloudy
3:53 PM 63.0 °F 54.0 °F 72% 29.95 in 10.0 mi South 12.7 mph - N/A   Mostly Cloudy
4:04 PM 62.6 °F 53.6 °F 72% 29.95 in 10.0 mi SSW 12.7 mph - N/A   Mostly Cloudy
4:53 PM 61.0 °F 55.0 °F 81% 29.94 in 10.0 mi SSW 16.1 mph - N/A   Mostly Cloudy
5:53 PM 61.0 °F 54.0 °F 78% 29.94 in 10.0 mi South 13.8 mph - N/A   Overcast
6:53 PM 61.0 °F 54.0 °F 78% 29.96 in 10.0 mi South 16.1 mph - 0.00 in Rain Light Rain
7:32 PM 60.8 °F 53.6 °F 77% 29.95 in 10.0 mi South 12.7 mph - 0.00 in Rain Light Rain
7:53 PM 61.0 °F 55.0 °F 81% 29.96 in 7.0 mi South 11.5 mph - 0.01 in Rain Rain
8:00 PM 60.8 °F 55.4 °F 82% 29.96 in 2.5 mi South 13.8 mph - 0.03 in Rain Heavy Rain
8:09 PM 60.8 °F 53.6 °F 77% 29.96 in 7.0 mi SSE 15.0 mph - 0.06 in Rain Rain
8:39 PM 60.8 °F 55.4 °F 82% 29.97 in 1.5 mi South 12.7 mph - 0.09 in Rain Light Rain
8:53 PM 60.1 °F 55.0 °F 83% 29.96 in 2.0 mi SSE 12.7 mph - 0.17 in Rain Heavy Rain
8:59 PM 59.0 °F 55.4 °F 88% 29.96 in 5.0 mi SSE 15.0 mph - 0.02 in Rain Rain
9:11 PM 59.0 °F 55.4 °F 88% 29.97 in 2.0 mi South 12.7 mph - 0.03 in Rain Light Rain
9:19 PM 59.0 °F 55.4 °F 88% 29.97 in 1.5 mi SSE 13.8 mph - 0.04 in Rain Light Rain
9:28 PM 59.0 °F 55.4 °F 88% 29.97 in 2.5 mi South 9.2 mph - 0.07 in Rain Rain
9:31 PM 59.0 °F 57.2 °F 94% 29.97 in 1.5 mi SSW 10.4 mph - 0.11 in Rain Rain
9:40 PM 57.2 °F 55.4 °F 94% 29.98 in 2.5 mi NW 6.9 mph - 0.14 in Rain Rain
9:47 PM 57.2 °F 55.4 °F 94% 29.98 in 2.5 mi WNW 4.6 mph - 0.16 in Rain Rain
9:53 PM 57.0 °F 55.0 °F 93% 29.99 in 7.0 mi WNW 6.9 mph - 0.17 in Rain Rain
10:11 PM 57.2 °F 55.4 °F 94% 29.99 in 7.0 mi West 3.5 mph - 0.02 in Rain Light Rain
10:28 PM 57.2 °F 55.4 °F 94% 30.00 in 7.0 mi West 6.9 mph - 0.04 in Rain Light Rain
10:53 PM 55.9 °F 54.0 °F 93% 30.00 in 7.0 mi West 8.1 mph - 0.04 in Rain Light Rain
11:22 PM 57.2 °F 53.6 °F 88% 30.01 in 10.0 mi WNW 8.1 mph - 0.00 in   Overcast
11:53 PM 57.0 °F 54.0 °F 89% 30.02 in 10.0 mi WNW 8.1 mph - 0.00 in Rain Light Rain